When you browse on this site, cookies collect data to enhance your experience and personalize the content and advertising you see.
Visit our Privacy Policy to learn more. By continuing to use the site, you agree to this use of cookies and data.
  • In Hungary
  • List of Countries
  • For 7 days
  • Water Temperature
  • Weather Map
  • News
  • Weather Widgets
  • user-avatar
    Login

    Hourly Weather Yucaipa

    Today, 16 December, Monday

    Time Temperature Precipitation Wind Pressure Humidity
    00:00 +5°C° 0 mm 2 mps 690 mmHg 35%
    01:00 +5°C° 0 mm 2 mps 690 mmHg 33%
    02:00 +5°C° 0 mm 2 mps 690 mmHg 33%
    03:00 +5°C° 0 mm 2 mps 690 mmHg 33%
    04:00 +5°C° 0 mm 2 mps 690 mmHg 32%
    05:00 +4°C° 0 mm 2 mps 691 mmHg 32%
    06:00 +3°C° 0 mm 3 mps 691 mmHg 32%
    07:00 +3°C° 0 mm 3 mps 692 mmHg 32%
    08:00 +5°C° 0 mm 3 mps 693 mmHg 27%
    09:00 +9°C° 0 mm 3 mps 694 mmHg 22%
    10:00 +11°C° 0 mm 3 mps 695 mmHg 18%
    11:00 +11°C° 0 mm 3 mps 694 mmHg 18%
    12:00 +12°C° 0 mm 3 mps 694 mmHg 17%
    13:00 +12°C° 0 mm 3 mps 694 mmHg 17%
    14:00 +11°C° 0 mm 3 mps 693 mmHg 21%
    15:00 +10°C° 0 mm 3 mps 693 mmHg 24%
    16:00 +9°C° 0 mm 3 mps 693 mmHg 28%
    17:00 +8°C° 0 mm 3 mps 693 mmHg 29%
    18:00 +7°C° 0 mm 3 mps 693 mmHg 30%
    19:00 +4°C° 0 mm 3 mps 693 mmHg 31%
    20:00 +4°C° 0 mm 3 mps 693 mmHg 29%
    21:00 +4°C° 0 mm 3 mps 694 mmHg 27%
    22:00 +4°C° 0 mm 3 mps 694 mmHg 25%
    23:00 +4°C° 0 mm 3 mps 694 mmHg 24%

    Tomorrow, 17 December, Tuesday

    Time Temperature Precipitation Wind Pressure Humidity
    00:00 +4°C° 0 mm 3 mps 694 mmHg 23%
    01:00 +3°C° 0 mm 3 mps 694 mmHg 21%
    02:00 +3°C° 0 mm 3 mps 694 mmHg 21%
    03:00 +3°C° 0 mm 3 mps 694 mmHg 20%
    04:00 +3°C° 0 mm 4 mps 693 mmHg 20%
    05:00 +3°C° 0 mm 4 mps 694 mmHg 19%
    06:00 +3°C° 0 mm 4 mps 694 mmHg 19%
    07:00 +3°C° 0 mm 4 mps 694 mmHg 19%
    08:00 +5°C° 0 mm 4 mps 695 mmHg 17%
    09:00 +8°C° 0 mm 4 mps 695 mmHg 16%
    10:00 +11°C° 0 mm 4 mps 696 mmHg 14%
    11:00 +12°C° 0 mm 4 mps 695 mmHg 14%
    12:00 +12°C° 0 mm 3 mps 695 mmHg 13%
    13:00 +13°C° 0 mm 3 mps 694 mmHg 13%
    14:00 +12°C° 0 mm 3 mps 693 mmHg 15%
    15:00 +11°C° 0 mm 3 mps 693 mmHg 17%
    16:00 +10°C° 0 mm 3 mps 692 mmHg 19%
    17:00 +9°C° 0 mm 3 mps 692 mmHg 18%
    18:00 +8°C° 0 mm 3 mps 691 mmHg 16%
    19:00 +7°C° 0 mm 3 mps 691 mmHg 15%
    20:00 +7°C° 0 mm 3 mps 691 mmHg 15%
    21:00 +7°C° 0 mm 3 mps 691 mmHg 15%
    22:00 +7°C° 0 mm 2 mps 690 mmHg 15%
    23:00 +6°C° 0 mm 2 mps 690 mmHg 15%

    Day after tomorrow, 18 December, Wednesday

    Time Temperature Precipitation Wind Pressure Humidity
    00:00 +5°C° 0 mm 2 mps 689 mmHg 15%
    01:00 +5°C° 0 mm 2 mps 689 mmHg 16%
    02:00 +5°C° 0 mm 1 mps 688 mmHg 16%
    03:00 +5°C° 0 mm 1 mps 688 mmHg 17%
    04:00 +5°C° 0 mm 1 mps 688 mmHg 17%
    05:00 +5°C° 0 mm 1 mps 688 mmHg 18%
    06:00 +5°C° 0 mm 1 mps 687 mmHg 19%
    07:00 +4°C° 0 mm 0 mps 687 mmHg 20%
    08:00 +6°C° 0 mm 0 mps 688 mmHg 18%
    09:00 +9°C° 0 mm 1 mps 688 mmHg 16%
    10:00 +11°C° 0 mm 1 mps 689 mmHg 14%
    11:00 +12°C° 0 mm 1 mps 689 mmHg 15%
    12:00 +12°C° 0 mm 2 mps 688 mmHg 16%
    13:00 +13°C° 0 mm 2 mps 688 mmHg 18%
    14:00 +12°C° 0 mm 2 mps 688 mmHg 21%
    15:00 +10°C° 0 mm 2 mps 687 mmHg 25%
    16:00 +10°C° 0 mm 1 mps 687 mmHg 28%
    17:00 +9°C° 0 mm 1 mps 687 mmHg 31%
    18:00 +8°C° 0 mm 1 mps 687 mmHg 33%
    19:00 +6°C° 0 mm 1 mps 687 mmHg 35%
    20:00 +6°C° 0 mm 1 mps 687 mmHg 36%
    21:00 +6°C° 0 mm 1 mps 688 mmHg 38%
    22:00 +5°C° 0 mm 1 mps 688 mmHg 39%
    23:00 +5°C° 0 mm 1 mps 688 mmHg 42%

    19 December, Thursday

    Time Temperature Precipitation Wind Pressure Humidity
    00:00 +4°C° 0 mm 0 mps 688 mmHg 45%
    01:00 +4°C° 0 mm 0 mps 688 mmHg 48%
    02:00 +4°C° 0 mm 0 mps 688 mmHg 48%
    03:00 +5°C° 0 mm 1 mps 688 mmHg 48%
    04:00 +5°C° 0 mm 1 mps 688 mmHg 49%
    05:00 +5°C° 0 mm 1 mps 689 mmHg 48%
    06:00 +5°C° 0 mm 1 mps 689 mmHg 47%
    07:00 +5°C° 0 mm 1 mps 689 mmHg 47%
    08:00 +7°C° 0 mm 1 mps 690 mmHg 41%
    09:00 +10°C° 0 mm 1 mps 691 mmHg 35%
    10:00 +13°C° 0 mm 1 mps 692 mmHg 29%
    11:00 +14°C° 0 mm 1 mps 692 mmHg 28%
    12:00 +14°C° 0 mm 1 mps 692 mmHg 27%
    13:00 +15°C° 0 mm 1 mps 691 mmHg 26%
    14:00 +14°C° 0 mm 1 mps 691 mmHg 31%
    15:00 +13°C° 0 mm 1 mps 691 mmHg 35%
    16:00 +12°C° 0 mm 1 mps 691 mmHg 40%
    17:00 +11°C° 0 mm 1 mps 691 mmHg 40%
    18:00 +10°C° 0 mm 1 mps 691 mmHg 39%
    19:00 +8°C° 0 mm 1 mps 691 mmHg 39%
    20:00 +8°C° 0 mm 1 mps 691 mmHg 39%
    21:00 +8°C° 0 mm 1 mps 691 mmHg 38%
    22:00 +8°C° 0 mm 1 mps 692 mmHg 38%
    23:00 +8°C° 0 mm 1 mps 692 mmHg 36%

    20 December, Friday

    Time Temperature Precipitation Wind Pressure Humidity
    00:00 +8°C° 0 mm 1 mps 692 mmHg 34%
    01:00 +8°C° 0 mm 1 mps 691 mmHg 33%
    02:00 +8°C° 0 mm 1 mps 691 mmHg 34%
    03:00 +8°C° 0 mm 1 mps 691 mmHg 35%
    04:00 +7°C° 0 mm 1 mps 691 mmHg 36%
    05:00 +7°C° 0 mm 1 mps 691 mmHg 35%
    06:00 +7°C° 0 mm 1 mps 692 mmHg 35%
    07:00 +8°C° 0 mm 1 mps 692 mmHg 35%
    08:00 +10°C° 0 mm 1 mps 693 mmHg 30%
    09:00 +13°C° 0 mm 1 mps 694 mmHg 26%
    10:00 +16°C° 0 mm 1 mps 694 mmHg 21%
    11:00 +18°C° 0 mm 1 mps 694 mmHg 21%
    12:00 +18°C° 0 mm 1 mps 694 mmHg 20%
    13:00 +19°C° 0 mm 1 mps 693 mmHg 20%
    14:00 +18°C° 0 mm 1 mps 693 mmHg 25%
    15:00 +15°C° 0 mm 1 mps 692 mmHg 30%
    16:00 +14°C° 0 mm 1 mps 692 mmHg 34%
    17:00 +13°C° 0 mm 1 mps 692 mmHg 32%
    18:00 +12°C° 0 mm 1 mps 692 mmHg 30%
    19:00 +11°C° 0 mm 1 mps 692 mmHg 28%
    20:00 +11°C° 0 mm 1 mps 692 mmHg 27%
    21:00 +11°C° 0 mm 1 mps 692 mmHg 25%
    22:00 +10°C° 0 mm 1 mps 692 mmHg 24%
    23:00 +10°C° 0 mm 1 mps 691 mmHg 24%

    21 December, Saturday

    Time Temperature Precipitation Wind Pressure Humidity
    00:00 +10°C° 0 mm 1 mps 691 mmHg 25%
    01:00 +10°C° 0 mm 1 mps 690 mmHg 25%
    02:00 +10°C° 0 mm 1 mps 690 mmHg 26%
    03:00 +10°C° 0 mm 1 mps 690 mmHg 27%
    04:00 +9°C° 0 mm 1 mps 689 mmHg 28%
    05:00 +9°C° 0 mm 1 mps 689 mmHg 29%
    06:00 +9°C° 0 mm 1 mps 689 mmHg 30%
    07:00 +9°C° 0 mm 1 mps 689 mmHg 30%
    08:00 +12°C° 0 mm 1 mps 690 mmHg 26%
    09:00 +14°C° 0 mm 1 mps 691 mmHg 22%
    10:00 +18°C° 0 mm 1 mps 691 mmHg 18%
    11:00 +18°C° 0 mm 1 mps 691 mmHg 18%
    12:00 +18°C° 0 mm 2 mps 691 mmHg 18%
    13:00 +18°C° 0 mm 2 mps 690 mmHg 17%
    14:00 +17°C° 0 mm 2 mps 690 mmHg 22%
    15:00 +16°C° 0 mm 1 mps 689 mmHg 27%
    16:00 +14°C° 0 mm 1 mps 688 mmHg 31%
    17:00 +13°C° 0 mm 1 mps 688 mmHg 32%
    18:00 +11°C° 0 mm 1 mps 688 mmHg 32%
    19:00 +10°C° 0 mm 1 mps 688 mmHg 33%
    20:00 +10°C° 0 mm 1 mps 688 mmHg 34%
    21:00 +9°C° 0 mm 1 mps 688 mmHg 36%
    22:00 +9°C° 0 mm 1 mps 688 mmHg 37%
    23:00 +9°C° 0 mm 1 mps 688 mmHg 36%
    Show more